| time (UTC) | temp F | wind direction | speed knots | gust knots | rain 1hr in | rain 24hr in | rain mn in | humidity % | barometer mb |
| 20260505093022 | 49 | 70 | 0.9 | 4.3 | 0.02 | 0.69 | 0.23 | 92 | 1007.2 |
| 20260505091515 | 49 | 72 | 0.9 | 1.7 | 0.02 | 0.69 | 0.23 | 93 | 1007.2 |
| 20260505090008 | 48 | 63 | 0.0 | 4.3 | 0.00 | 0.67 | 0.21 | 89 | 1007.2 |
| 20260505084508 | 50 | 65 | 0.0 | 3.5 | 0.00 | 0.67 | 0.21 | 85 | 1007.0 |
| 20260505083007 | 49 | 34 | 0.0 | 4.3 | 0.00 | 0.67 | 0.21 | 77 | 1006.9 |
| 20260505081507 | 49 | 13 | 0.9 | 5.2 | 0.00 | 0.67 | 0.21 | 76 | 1006.9 |
| 20260505080008 | 49 | 67 | 0.9 | 4.3 | 0.00 | 0.67 | 0.21 | 79 | 1006.8 |
| 20260505074507 | 50 | 59 | 0.0 | 4.3 | 0.00 | 0.67 | 0.21 | 85 | 1007.0 |
| 20260505073001 | 48 | 302 | 0.0 | 4.3 | 0.00 | 0.67 | 0.21 | 87 | 1007.1 |
| 20260505071559 | 47 | 52 | 0.0 | 5.2 | 0.00 | 0.67 | 0.21 | 92 | 1007.2 |
| 20260505070059 | 46 | 99 | 0.0 | 0.9 | 0.00 | 0.67 | 0.21 | 86 | 1007.2 |
| 20260505064607 | 46 | 100 | 0.0 | 4.3 | 0.00 | 0.67 | 0.21 | 88 | 1007.2 |
| 20260505063053 | 45 | 74 | 0.0 | 1.7 | 0.00 | 0.67 | 0.21 | 95 | 1007.3 |
| 20260505061550 | 43 | 288 | 0.0 | 3.5 | 0.00 | 0.67 | 0.21 | 94 | 1007.3 |
| 20260505060050 | 43 | 51 | 0.0 | 4.3 | 0.00 | 0.67 | 0.21 | 95 | 1007.6 |
| 20260505054615 | 42 | 242 | 1.7 | 4.3 | 0.00 | 0.67 | 0.21 | 95 | 1007.7 |
| 20260505053049 | 42 | 238 | 0.0 | 1.7 | 0.00 | 0.67 | 0.21 | 95 | 1007.5 |
| 20260505051545 | 42 | 234 | 0.0 | 3.5 | 0.02 | 0.67 | 0.21 | 95 | 1007.8 |
| 20260505041548 | 42 | 333 | 0.0 | 1.7 | 0.06 | 0.65 | 0.19 | 94 | 1008.4 |
| 20260505040042 | 42 | 333 | 0.0 | 1.7 | 0.07 | 0.63 | 0.17 | 93 | 1008.3 |
| 20260505034537 | 42 | 266 | 0.0 | 0.9 | 0.08 | 0.61 | 0.16 | 93 | 1008.4 |
| 20260505033034 | 42 | 266 | 0.0 | 3.5 | 0.07 | 0.61 | 0.15 | 93 | 1008.6 |
| 20260505031538 | 42 | 60 | 0.9 | 1.7 | 0.06 | 0.57 | 0.13 | 92 | 1008.7 |
| 20260505030036 | 42 | 344 | 0.0 | 6.1 | 0.05 | 0.56 | 0.10 | 90 | 1008.6 |
| 20260505024530 | 42 | 43 | 3.5 | 7.8 | 0.03 | 0.54 | 0.08 | 90 | 1008.7 |
| 20260505023030 | 42 | 342 | 2.6 | 7.8 | 0.02 | 0.53 | 0.07 | 90 | 1008.4 |
| 20260505021528 | 42 | 350 | 1.7 | 5.2 | 0.02 | 0.52 | 0.06 | 92 | 1008.5 |
| 20260505020033 | 42 | 300 | 0.0 | 4.3 | 0.01 | 0.51 | 0.06 | 91 | 1008.4 |
| 20260505014526 | 43 | 50 | 0.9 | 3.5 | 0.00 | 0.50 | 0.05 | 90 | 1008.6 |
| 20260505013024 | 43 | 49 | 0.9 | 5.2 | 0.00 | 0.50 | 0.05 | 87 | 1008.6 |
| 20260505011524 | 43 | 51 | 1.7 | 5.2 | 0.00 | 0.50 | 0.05 | 86 | 1008.6 |
| 20260505010024 | 43 | 351 | 0.9 | 4.3 | 0.00 | 0.50 | 0.05 | 87 | 1008.5 |
| 20260505004523 | 43 | 301 | 1.7 | 7.8 | 0.00 | 0.50 | 0.05 | 86 | 1008.9 |
| 20260505003027 | 43 | 295 | 2.6 | 7.0 | 0.00 | 0.50 | 0.05 | 85 | 1009.1 |
| 20260505001520 | 43 | 349 | 1.7 | 7.8 | 0.00 | 0.50 | 0.05 | 86 | 1009.4 |
| 20260505000020 | 44 | 30 | 5.2 | 8.7 | 0.00 | 0.50 | 0.05 | 84 | 1009.6 |
| 20260504234518 | 43 | 14 | 4.3 | 7.8 | 0.01 | 0.50 | 0.05 | 86 | 1009.7 |
| 20260504233017 | 43 | 42 | 4.3 | 10.4 | 0.03 | 0.50 | 0.05 | 85 | 1009.7 |
| 20260504231516 | 43 | 38 | 3.5 | 7.8 | 0.05 | 0.50 | 0.05 | 88 | 1009.8 |
| 20260504230014 | 43 | 320 | 1.7 | 10.4 | 0.05 | 0.50 | 0.05 | 89 | 1010.2 |
| 20260504224519 | 43 | 59 | 4.3 | 9.6 | 0.03 | 0.49 | 0.03 | 88 | 1010.4 |
| 20260504223009 | 44 | 72 | 3.5 | 11.3 | 0.01 | 0.46 | 0.01 | 87 | 1010.6 |
| 20260504221506 | 44 | 19 | 1.7 | 10.4 | 0.00 | 0.46 | 0.00 | 86 | 1010.6 |
| 20260504220004 | 44 | 34 | 7.8 | 18.2 | 0.00 | 0.46 | 0.00 | 84 | 1010.6 |
| 20260504214502 | 44 | 14 | 6.1 | 11.3 | 0.01 | 0.46 | 0.46 | 88 | 1010.6 |
| 20260504213104 | 44 | 340 | 3.5 | 13.0 | 0.01 | 0.46 | 0.46 | 87 | 1010.8 |
| 20260504211601 | 44 | 31 | 6.1 | 8.7 | 0.02 | 0.46 | 0.46 | 87 | 1011.1 |
| 20260504204556 | 44 | 52 | 4.3 | 7.8 | 0.02 | 0.45 | 0.45 | 87 | 1011.1 |
| 20260504203054 | 44 | 331 | 3.5 | 6.1 | 0.04 | 0.45 | 0.45 | 90 | 1011.5 |
| 20260504201552 | 44 | 319 | 4.3 | 7.8 | 0.05 | 0.44 | 0.44 | 90 | 1011.5 |
| 20260504200100 | 43 | 355 | 3.5 | 7.0 | 0.04 | 0.43 | 0.43 | 92 | 1011.4 |
| 20260504194549 | 43 | 344 | 0.9 | 5.2 | 0.02 | 0.42 | 0.42 | 92 | 1011.2 |
| 20260504193049 | 43 | 59 | 0.9 | 5.2 | 0.02 | 0.41 | 0.41 | 90 | 1011.1 |
| 20260504191601 | 44 | 254 | 0.0 | 3.5 | 0.00 | 0.39 | 0.39 | 90 | 1010.9 |
| 20260504190046 | 44 | 344 | 2.6 | 7.8 | 0.00 | 0.39 | 0.39 | 88 | 1010.8 |
| 20260504184546 | 44 | 340 | 3.5 | 6.1 | 0.00 | 0.39 | 0.39 | 87 | 1010.8 |
| 20260504183045 | 44 | 311 | 3.5 | 7.0 | 0.00 | 0.39 | 0.39 | 90 | 1010.6 |
| 20260504181543 | 44 | 336 | 1.7 | 6.1 | 0.00 | 0.39 | 0.39 | 89 | 1010.8 |
| 20260504180043 | 44 | 345 | 2.6 | 11.3 | 0.01 | 0.39 | 0.39 | 88 | 1011.0 |
| 20260504174541 | 44 | 333 | 3.5 | 6.1 | 0.03 | 0.39 | 0.39 | 89 | 1011.2 |
| 20260504173039 | 44 | 336 | 2.6 | 8.7 | 0.08 | 0.39 | 0.39 | 89 | 1011.3 |
| 20260504171537 | 44 | 336 | 3.5 | 10.4 | 0.12 | 0.39 | 0.39 | 87 | 1011.5 |